Lid_Strength_Index
12 14 16 15 13 13 14 15 15 14 13 14 16 16 16 16 16 15 12 10 10 10 9 9 10 10 10 10 9 9 9 9 9 9 9 8 9 9 8 8 7 7 6 6
13 15 13 12 12 14 14 15 15 14 14 15 16 18 17 16 17 15 14 12 12 10 10 10 12 13 13 12 12 11 11 9 8 9 8 8 9 8 8 8 7 7 6 5
14 13 12 12 14 15 16 16 15 15 15 15 16 17 18 17 16 15 14 13 12 12 13 13 13 14 13 13 13 12 12 11 10 9 8 8 8 8 8 7 6 6 4 4
13 12 13 14 14 14 17 14 13 13 16 19 16 20 19 18 18 17 15 15 14 14 14 13 13 14 15 15 14 13 12 12 10 10 8 7 8 8 7 6 6 5 4 4
13 13 14 15 14 13 15 14 14 14 15 18 19 20 18 18 19 18 16 15 15 15 15 15 16 16 14 14 14 14 13 13 12 11 10 9 9 9 9 8 8 7 6 6
12 12 13 14 12 12 12 14 14 15 16 21 19 19 19 20 18 18 17 16 16 15 15 16 16 14 15 15 15 14 14 14 13 12 12 12 12 11 11 11 11 9 9 9
14 13 13 13 14 13 13 15 18 21 23 23 18 18 18 17 17 16 17 18 18 16 16 17 17 17 17 17 16 15 15 15 15 14 14 13 12 12 13 12 12 12 11 11
17 17 14 13 13 14 14 14 19 22 22 21 17 20 18 17 17 16 17 18 18 18 17 17 17 17 17 17 17 17 16 16 16 15 15 15 15 14 14 14 14 14 13 12
16 17 14 13 13 11 15 15 13 16 21 21 19 19 19 18 18 18 18 18 19 18 18 17 17 17 18 18 18 18 18 17 16 16 16 17 17 17 17 16 16 16 15 14
13 16 15 14 13 14 13 12 16 16 21 22 20 19 18 19 19 18 19 19 19 18 18 18 18 18 19 19 19 19 17 18 17 17 17 17 17 17 17 17 17 16 16 15
13 14 16 14 16 16 16 16 16 15 17 20 22 20 18 17 17 18 18 18 18 18 19 19 19 19 20 20 19 19 19 19 19 18 18 18 18 18 17 17 17 17 16 16
12 14 18 16 15 14 15 15 15 18 19 19 19 20 18 17 16 17 18 18 18 18 18 19 20 20 20 20 20 20 19 19 19 19 19 18 18 18 18 18 18 17 17 17
11 17 21 18 16 16 16 15 15 16 16 19 20 20 17 17 17 17 18 18 18 19 19 20 20 21 21 21 20 20 20 20 18 18 19 19 20 19 19 19 19 18 18 18
10 14 16 18 17 15 16 16 15 14 18 18 19 19 19 18 18 18 18 18 19 20 20 21 21 21 21 20 20 19 19 19 20 20 20 21 21 20 20 20 20 20 19 19
12 17 16 15 14 14 15 14 15 16 15 17 16 18 16 17 17 18 18 18 19 21 21 21 22 22 21 21 21 20 20 20 21 21 21 21 21 20 21 21 20 20 20 19
13 17 16 15 13 15 16 14 14 14 16 17 18 18 16 15 16 18 18 18 19 20 20 20 19 19 19 19 20 20 21 21 21 22 22 21 21 21 21 21 20 20 20 19
14 15 18 18 15 16 17 14 14 14 16 14 17 14 16 17 16 17 17 17 17 19 19 20 20 20 20 20 20 22 22 21 22 22 22 22 21 21 21 20 20 20 20 19
14 15 17 18 16 20 16 17 14 13 15 16 16 15 14 15 16 16 16 17 17 18 19 19 20 20 20 21 21 21 21 22 22 22 22 21 21 20 20 20 20 20 19 19
12 14 18 18 21 18 17 18 16 15 14 13 14 16 16 16 17 19 15 15 17 18 19 20 20 20 21 21 21 21 22 22 22 22 22 21 20 20 20 20 20 19 19 18
13 12 14 18 19 21 18 17 15 14 17 14 14 16 16 16 19 18 16 16 18 19 20 20 20 20 21 21 20 21 22 22 23 22 21 21 20 20 21 20 19 18 18 17
16 15 16 18 19 20 17 16 15 17 17 15 14 16 16 16 16 16 16 18 18 19 20 20 20 20 20 20 20 21 22 22 22 21 21 21 20 20 20 19 19 19 19 18
17 18 18 20 20 20 16 16 16 15 16 15 15 15 15 17 17 17 17 18 19 20 20 20 20 20 19 19 20 21 22 22 22 21 22 22 21 20 20 20 20 20 20 20
17 16 17 16 17 19 16 16 16 16 16 16 16 15 16 17 18 17 19 19 19 19 19 19 19 20 20 19 20 21 21 22 22 23 23 22 22 20 20 20 21 21 21 21
19 20 18 17 18 19 18 17 16 16 15 15 15 15 16 17 17 18 18 18 18 18 19 19 20 20 21 20 19 21 22 22 24 24 23 22 22 22 22 21 21 21 22 22
18 18 19 19 18 18 17 16 15 15 15 15 16 16 16 16 17 17 17 18 18 18 19 19 20 20 21 21 22 22 23 24 24 24 23 23 23 24 23 22 22 21 21 20
18 17 17 16 15 14 14 14 14 15 15 15 16 17 16 15 16 16 17 17 18 19 19 20 20 20 21 22 23 24 25 25 25 24 24 24 24 25 24 24 24 21 19 19